Simultaneous Nadir Overpasses (SNOs) Predictions

Prediction of SNOs between FY3D and NOAA-19 Satellite Orbit:

Table of predicted SNOs for the next 14.0 days since TLE Epoch: 5/4/2019
Index Date (FY3D) Time (FY3D) Lat,Lon (FY3D) SZA (FY3D ) Date (NOAA-19) Time (NOAA-19) Lat,Lon (NOAA-19) SZA (NOAA-19 ) Distance(km) Time Diff (sec)
1 05/15/2019 19:26:35 -80.17, 29.19 116.57 05/15/2019 19:25:23 -80.14, 29.19 116.56 2.74 72
2 05/15/2019 20:17:20 80.17,-163.48 63.42 05/15/2019 20:16:24 80.16,-163.31 63.42 3.22 56
3 05/15/2019 21:08:04 -80.16, 3.87 116.60 05/15/2019 21:07:23 -80.16, 3.97 116.59 1.91 41
4 05/15/2019 21:58:49 80.16, 171.20 63.39 05/15/2019 21:58:25 80.16, 171.14 63.41 1.22 24
5 05/15/2019 22:49:33 -80.16, -21.45 116.62 05/15/2019 22:49:24 -80.16, -21.56 116.61 2.27 9
6 05/15/2019 23:40:18 80.16, 145.88 63.37 05/15/2019 23:40:25 80.18, 145.92 63.38 2.25 7
7 05/16/2019 00:31:03 -80.18, -47.07 116.60 05/16/2019 00:31:25 -80.16, -47.10 116.62 2.76 22
8 05/16/2019 01:21:48 80.18, 120.26 63.40 05/16/2019 01:22:26 80.17, 120.38 63.36 2.43 38
9 05/16/2019 02:12:32 -80.18, -72.39 116.62 05/16/2019 02:13:25 -80.18, -72.32 116.65 1.32 53




NCC Satellite Simultaneous Nadir Overpasses (SNOs) Prediction Service
